GW1826 Weather Reports


time (UTC)temp
C
wind
direction
speed
KPH
gust
KPH
rain 1hr
cm
rain 24hr
cm
rain mn
cm
humidity
%
barometer
mb
20260503181517 21 157 3.2 9.7 0.00 0.00 0.00 62 1014.2
20260503181007 20 226 3.2 12.9 0.00 0.00 0.00 63 1014.3
20260503180508 20 123 3.2 12.9 0.00 0.00 0.00 67 1014.3
20260503180022 20 202 3.2 11.3 0.00 0.00 0.00 70 1014.4
20260503175504 20 122 3.2 11.3 0.00 0.00 0.00 65 1014.5
20260503175007 20 190 3.2 8.0 0.00 0.00 0.00 65 1014.6
20260503174518 20 143 3.2 9.7 0.00 0.00 0.00 65 1014.5
20260503174010 20 182 1.6 9.7 0.00 0.00 0.00 64 1014.6
20260503173503 20 227 1.6 8.0 0.00 0.00 0.00 63 1014.7
20260503173033 20 188 1.6 8.0 0.00 0.00 0.00 64 1014.6
20260503172507 20 213 0.0 8.0 0.00 0.00 0.00 57 1014.7
20260503172004 20 338 3.2 9.7 0.00 0.00 0.00 56 1014.7
20260503171516 20 348 1.6 9.7 0.00 0.00 0.00 55 1014.7
20260503171006 20 338 0.0 6.4 0.00 0.00 0.00 56 1014.8
20260503170506 19 169 0.0 6.4 0.00 0.00 0.00 56 1014.9
20260503151005 12 292 0.0 0.0 0.00 0.00 0.00 85 1015.2
20260503150506 12 292 0.0 0.0 0.00 0.00 0.00 87 1015.3
20260503131003 8 292 0.0 0.0 0.00 0.00 0.00 93 1014.9
20260503130507 8 292 0.0 0.0 0.00 0.03 0.00 93 1014.9
20260503110508 9 198 0.0 0.0 0.00 0.03 0.00 92 1015.1
20260503090507 10 198 0.0 0.0 0.00 0.03 0.00 91 1014.7
20260503081519 11 198 0.0 0.0 0.00 0.03 0.00 89 1014.7
20260503081005 11 198 0.0 0.0 0.00 0.03 0.00 90 1014.7
20260503080507 11 198 0.0 0.0 0.00 0.03 0.00 90 1014.7
20260503072510 11 198 0.0 0.0 0.00 0.03 0.00 89 1014.7
20260503072004 11 198 0.0 0.0 0.00 0.03 0.00 89 1014.6
20260503071512 11 198 0.0 0.0 0.00 0.03 0.00 88 1014.7
20260503071007 11 198 0.0 0.0 0.00 0.03 0.00 88 1014.7
20260503070506 11 198 0.0 0.0 0.00 0.03 0.00 88 1014.7
20260503055007 12 198 0.0 0.0 0.00 0.03 0.03 87 1014.2
20260503054511 12 198 0.0 0.0 0.00 0.03 0.03 86 1014.3
20260503054007 12 198 0.0 0.0 0.00 0.03 0.03 85 1014.2
20260503053506 12 198 0.0 0.0 0.00 0.03 0.03 85 1014.3
20260503053018 12 198 0.0 0.0 0.00 0.03 0.03 85 1014.3
20260503052509 12 198 0.0 0.0 0.00 0.03 0.03 85 1014.4
20260503052008 12 198 0.0 0.0 0.00 0.03 0.03 85 1014.4
20260503051519 12 198 0.0 0.0 0.00 0.03 0.03 84 1014.4
20260503051007 12 198 0.0 0.0 0.00 0.03 0.03 84 1014.4
20260503050506 12 198 0.0 0.0 0.00 0.03 0.03 85 1014.4
20260503050014 13 198 0.0 0.0 0.00 0.03 0.03 84 1014.4
20260503045506 13 198 0.0 0.0 0.00 0.03 0.03 84 1014.4
20260503045009 13 198 0.0 0.0 0.00 0.03 0.03 83 1014.3
20260503044525 13 198 0.0 0.0 0.00 0.03 0.03 83 1014.4
20260503044006 13 198 0.0 0.0 0.00 0.03 0.03 82 1014.4
20260503043506 13 198 0.0 0.0 0.00 0.03 0.03 82 1014.3
20260503043023 13 198 0.0 0.0 0.00 0.03 0.03 82 1014.2
20260503042504 13 198 0.0 0.0 0.00 0.03 0.03 81 1014.2
20260503042008 14 198 0.0 0.0 0.00 0.03 0.03 81 1014.3
20260503041522 14 198 0.0 0.0 0.00 0.03 0.03 81 1014.3
20260503041010 14 198 0.0 0.0 0.00 0.03 0.03 80 1014.2
20260503040506 14 198 0.0 0.0 0.00 0.03 0.03 80 1014.2
20260503040016 14 198 0.0 0.0 0.00 0.03 0.03 80 1014.1
20260503035506 15 198 0.0 0.0 0.00 0.03 0.03 79 1014.0
20260503035006 15 198 0.0 0.0 0.00 0.03 0.03 78 1013.9
20260503034520 15 198 0.0 0.0 0.00 0.03 0.03 76 1013.8
20260503034010 15 198 0.0 0.0 0.00 0.03 0.03 75 1013.7
20260503033507 15 198 0.0 0.0 0.00 0.03 0.03 76 1013.6
20260503033016 15 198 0.0 1.6 0.00 0.03 0.03 75 1013.6
20260503032506 16 198 0.0 1.6 0.00 0.03 0.03 74 1013.6
20260503032007 16 198 0.0 1.6 0.00 0.03 0.03 72 1013.6
20260503031534 16 198 0.0 3.2 0.00 0.03 0.03 71 1013.7
20260503031008 16 198 0.0 3.2 0.00 0.03 0.03 71 1013.7
20260503030507 17 198 0.0 3.2 0.00 0.03 0.03 69 1013.6
20260503030024 17 198 0.0 3.2 0.00 0.03 0.03 68 1013.6
20260503025507 17 198 0.0 3.2 0.00 0.03 0.03 67 1013.6
20260503025006 17 198 1.6 4.8 0.00 0.03 0.03 66 1013.5
20260503024524 18 198 1.6 4.8 0.00 0.03 0.03 65 1013.6
20260503024011 18 198 1.6 4.8 0.00 0.03 0.03 64 1013.6
20260503023506 18 171 0.0 6.4 0.00 0.03 0.03 62 1013.6
20260503023041 19 190 1.6 6.4 0.00 0.03 0.03 63 1013.6
20260503022508 19 169 1.6 3.2 0.00 0.03 0.03 62 1013.6
20260503022005 19 169 1.6 6.4 0.00 0.03 0.03 63 1013.6
20260503021523 19 169 1.6 6.4 0.00 0.03 0.03 64 1013.6
20260503021008 19 169 0.0 6.4 0.00 0.03 0.03 61 1013.7
20260503020507 19 169 0.0 3.2 0.00 0.03 0.03 61 1013.7
20260503020019 20 169 0.0 4.8 0.00 0.03 0.03 61 1013.8
20260503015508 20 174 0.0 4.8 0.00 0.03 0.03 61 1013.8
20260503015010 20 212 1.6 4.8 0.00 0.03 0.03 62 1013.9
20260503014514 19 212 1.6 4.8 0.00 0.03 0.03 61 1014.0
20260503014010 20 227 1.6 6.4 0.00 0.03 0.03 60 1014.0
20260503013506 20 162 1.6 6.4 0.00 0.03 0.03 60 1014.1
20260503013028 20 164 1.6 6.4 0.00 0.03 0.03 61 1014.1
20260503012506 20 169 1.6 8.0 0.00 0.03 0.03 60 1014.1
20260503012006 20 204 1.6 9.7 0.00 0.03 0.03 60 1014.2
20260503011508 20 123 4.8 9.7 0.00 0.03 0.03 59 1014.2
20260503011002 21 141 1.6 9.7 0.00 0.03 0.03 59 1014.2
20260503010502 20 192 1.6 9.7 0.00 0.03 0.03 59 1014.3
20260503010009 21 215 3.2 8.0 0.00 0.03 0.03 58 1014.3
20260503005503 21 163 1.6 8.0 0.00 0.03 0.03 58 1014.3
20260503005005 20 200 1.6 9.7 0.00 0.03 0.03 59 1014.3
20260503004507 20 236 1.6 9.7 0.00 0.03 0.03 58 1014.3
20260503004003 21 183 3.2 9.7 0.00 0.03 0.03 59 1014.3
20260503003503 21 163 3.2 9.7 0.00 0.03 0.03 59 1014.3
20260503003011 21 208 3.2 9.7 0.00 0.03 0.03 59 1014.4
20260503002507 21 218 1.6 11.3 0.00 0.03 0.03 60 1014.4
20260503002003 21 229 4.8 11.3 0.00 0.03 0.03 64 1014.4
20260503001510 21 225 3.2 11.3 0.00 0.03 0.03 63 1014.5
20260503001004 21 138 1.6 9.7 0.00 0.03 0.03 59 1014.5
20260503000504 21 217 3.2 9.7 0.00 0.03 0.03 61 1014.5
20260503000015 21 203 6.4 9.7 0.00 0.03 0.03 60 1014.4
20260502235503 21 110 4.8 9.7 0.00 0.03 0.03 59 1014.5
20260502235003 21 218 1.6 14.5 0.00 0.03 0.03 61 1014.6
20260502234507 21 207 4.8 16.1 0.00 0.03 0.03 59 1014.7
20260502234003 22 191 6.4 16.1 0.00 0.03 0.03 59 1014.7
20260502233503 22 213 4.8 12.9 0.00 0.03 0.03 56 1014.7
20260502233011 22 106 1.6 11.3 0.00 0.03 0.03 57 1014.7
20260502232504 22 198 4.8 11.3 0.00 0.03 0.03 49 1014.9
20260502232010 22 195 3.2 12.9 0.00 0.03 0.03 51 1015.0
20260502231511 22 250 4.8 12.9 0.00 0.03 0.03 53 1014.9
20260502231007 22 290 4.8 16.1 0.00 0.03 0.03 51 1015.0
20260502230507 22 274 4.8 16.1 0.00 0.03 0.03 52 1015.2
20260502230005 22 312 4.8 14.5 0.00 0.03 0.03 51 1015.1
20260502225502 22 26 4.8 14.5 0.00 0.03 0.03 59 1015.1
20260502225002 22 281 3.2 9.7 0.00 0.03 0.03 48 1015.2
20260502224511 22 263 4.8 16.1 0.00 0.03 0.03 48 1015.3
20260502224002 22 317 8.0 16.1 0.00 0.03 0.03 52 1015.4
20260502223505 22 344 4.8 12.9 0.00 0.03 0.03 53 1015.3
20260502223009 22 317 4.8 17.7 0.00 0.03 0.03 54 1015.3
20260502222503 22 260 9.7 17.7 0.00 0.03 0.03 53 1015.4
20260502222004 22 277 9.7 16.1 0.00 0.03 0.03 51 1015.5
20260502221509 22 192 4.8 14.5 0.00 0.03 0.03 55 1015.5
20260502221010 21 299 8.0 16.1 0.00 0.03 0.03 57 1015.6
20260502220503 21 269 6.4 16.1 0.00 0.03 0.03 54 1015.6
20260502220005 21 274 4.8 16.1 0.00 0.03 0.03 56 1015.7
20260502215505 21 242 6.4 14.5 0.00 0.03 0.03 55 1015.7
20260502215005 21 261 3.2 14.5 0.00 0.03 0.03 58 1015.9
20260502214507 21 302 4.8 14.5 0.00 0.03 0.03 56 1015.9
20260502214007 21 271 8.0 14.5 0.00 0.03 0.03 55 1016.1
20260502213507 22 185 6.4 16.1 0.00 0.03 0.03 56 1016.1
20260502213007 21 248 3.2 16.1 0.00 0.03 0.03 55 1016.1
20260502212506 21 274 6.4 11.3 0.00 0.03 0.03 53 1016.2
20260502212008 21 309 3.2 14.5 0.00 0.03 0.03 57 1016.3
20260502211510 21 317 6.4 16.1 0.00 0.03 0.03 58 1016.3
20260502211007 21 238 6.4 16.1 0.00 0.03 0.03 54 1016.4
20260502210502 20 308 3.2 19.3 0.00 0.03 0.03 53 1016.4
20260502210008 20 287 11.3 19.3 0.00 0.03 0.03 54 1016.5
20260502205504 20 250 8.0 14.5 0.00 0.03 0.03 56 1016.5
20260502205004 20 337 4.8 19.3 0.00 0.03 0.03 57 1016.5
20260502204519 20 273 4.8 19.3 0.00 0.03 0.03 60 1016.5
20260502204009 20 270 4.8 16.1 0.00 0.03 0.03 61 1016.6
20260502203504 20 294 8.0 16.1 0.00 0.03 0.03 58 1016.6
20260502203015 20 246 8.0 17.7 0.00 0.03 0.03 61 1016.6
20260502202506 20 303 3.2 19.3 0.00 0.03 0.03 63 1016.6
20260502202002 20 271 11.3 22.5 0.00 0.03 0.03 61 1016.6
20260502201509 20 256 6.4 22.5 0.00 0.03 0.03 63 1016.6
20260502201006 20 289 8.0 19.3 0.00 0.03 0.03 62 1016.7
20260502200505 20 287 4.8 19.3 0.00 0.03 0.03 67 1016.6
20260502200010 20 255 6.4 17.7 0.00 0.03 0.03 64 1016.6
20260502195505 20 161 6.4 14.5 0.00 0.03 0.03 67 1016.7
20260502195005 20 262 4.8 14.5 0.00 0.03 0.03 66 1016.8
20260502194508 20 288 4.8 16.1 0.00 0.03 0.03 66 1016.8
20260502194009 20 223 4.8 16.1 0.00 0.03 0.03 65 1017.0
20260502193508 20 215 6.4 22.5 0.00 0.03 0.03 67 1017.0
20260502193010 19 217 4.8 22.5 0.00 0.03 0.03 69 1017.0
20260502192506 20 93 6.4 19.3 0.00 0.03 0.03 69 1017.1
20260502192010 20 204 9.7 19.3 0.00 0.03 0.03 70 1017.0
20260502191515 20 200 9.7 19.3 0.00 0.03 0.03 70 1017.1
20260502191004 20 205 9.7 19.3 0.00 0.03 0.03 69 1017.1
20260502190503 21 174 6.4 16.1 0.00 0.03 0.03 59 1017.1
20260502190011 21 5 1.6 6.4 0.00 0.03 0.03 59 1017.1
20260502185508 21 302 1.6 6.4 0.00 0.03 0.03 57 1017.1
20260502185007 21 36 1.6 12.9 0.00 0.03 0.03 55 1017.0
20260502184515 20 355 0.0 12.9 0.00 0.03 0.03 54 1017.2
20260502184009 20 297 3.2 14.5 0.00 0.03 0.03 56 1017.2
20260502183510 20 313 3.2 14.5 0.00 0.03 0.03 58 1017.2
20260502183013 20 312 1.6 8.0 0.00 0.03 0.03 58 1017.3
20260502182509 20 309 3.2 9.7 0.00 0.03 0.03 60 1017.3
20260502182006 20 304 4.8 11.3 0.00 0.03 0.03 57 1017.3